sat.trackr.live / text

‹ back to catalog

STARLINK-37105

NORAD 68610 · 2026-073J

PAYLOAD ACTIVE UNKNOWN

§ Identity

Operator
Country
US
Launch date
2026-04-07
Launch site
AFWTR
Launch vehicle
Mass (kg)
RCS (m²)

Purposes: comms

External: N2YO · Heavens-Above · Gunter

§ Orbital elements

Epoch: 2026-09-19T23:36:31.696416Z

Period
93.91 min
Inclination
97.2867°
Eccentricity
0.0001735
Mean motion
15.33449340 rev/d
Perigee alt
464.3 km
Apogee alt
466.7 km
Semi-major
6,843.7 km
B*
4.0764e-4
RAAN
101.0381°
Arg perigee
89.2142°
Mean anomaly
270.9300°
Rev number
2,566

§ Raw data

STARLINK-371051 68610U 26073J   26262.98370019  .00013110  00000+0  40764-3 0  99932 68610  97.2867 101.0381 0001735  89.2142 270.9300 15.33449340 25664

JSON: /api/v1/satellites/68610 · /tle

For live sub-satellite position, see the globe view (requires WebGL).

§ Visibility from observer

Set your observer location to see the next 7 days of passes ≥ 10°. The values pass through the URL so the page stays shareable.

No JS? Fill the form by hand. The geolocation button needs JavaScript.